(192293) Dominikbrunner = 1990 TA2 = 1999 VB196

Discovered at Tautenburg on 1990-10-10 by F. Borngen and L. D. Schmadel.
(192293) Dominikbrunner = 1990 TA2

On 2009 Sept. 12, the Bavarian entrepreneur Dominik Florian Brunner (1959-2009) was violently killed in a suburban train station in Munich when he tried to stop four children from being abused by two ruffians. The name was suggested by the first discoverer. [Ref: Minor Planet Circ. 69495]

Orbit

Orbit type: Main Belt

Note: WebGL enabled browser required.

epoch2024-03-31.0
epoch JD2460400.5
perihelion date2022-08-14.49068
perihelion JD2459805.99068
argument of perihelion (°)167.13169
ascending node (°)254.86300
inclination (°)4.23674
eccentricity0.1523281
perihelion distance (AU)2.3085967
Tisserand w.r.t. Jupiter3.3
ΔV w.r.t. Earth (km/sec)9.6
semimajor axis (AU)2.7234554
mean anomaly (°)130.37134
mean daily motion (°/day)0.21929230
aphelion distance (AU)3.138
period (years)4.49
P-vector [x]0.46896593
P-vector [y]0.80364967
P-vector [z]0.36635798
Q-vector [x]-0.88033244
Q-vector [y]0.45881740
Q-vector [z]0.12042173
absolute magnitude16.21
phase slope0.15
uncertainty0
referenceMPEC 2024-F28
observations used495
oppositions16
arc length (days)12213
first opposition used1990
last opposition used2024
residual rms (arc-secs)0.74
perturbers coarse indicatorM-v
perturbers precise indicator003Ek
first observation date used1990-10-10.0
last observation date used2024-03-18.0
computer nameMPCLINUX
JD of orbit computation2456700.431123
perihelion JD uncertainty (days)8.5554E-05
argument of perihelion uncertainty (°)6.1963E-05
ascending node uncertainty (°)5.8316E-05
inclination uncertainty (°)3.6466E-06
eccentricity uncertainty 3.0171E-08
perihelion distance uncertainty (AU)8.2117E-08
Minimum Orbit Intersection Distances (in AU)
for orbit epoch: 2460400.5, reference: E2024-GD4
Mercury1.99833
Venus1.58749
Earth1.32219
Mars0.77623
Jupiter2.17435
Saturn6.63118
Uranus15.5693
Neptune27.3437

Observations

506 total observations over interval: 1990 10 10.82201 – 2024 03 18.514844
These data are available for download (format description).

Date (UT) J2000 RA J2000 Dec Magn Location Ref
1990 10 10.82201 01 05 41.60 +13 31 45.7   033 – Karl Schwarzschild Observatory, Tautenburg MPC 17091
1990 10 11.84493 01 04 50.65 +13 25 28.8 19.7   033 – Karl Schwarzschild Observatory, Tautenburg MPC 17091
1990 10 11.89215 01 04 48.30 +13 25 11.9   033 – Karl Schwarzschild Observatory, Tautenburg MPC 17091
1990 10 13.87271 01 03 09.81 +13 12 48.2   033 – Karl Schwarzschild Observatory, Tautenburg MPC 17091
1999 10 07.37041 01 20 36.96 +14 56 00.3 19.3   704 – Lincoln Laboratory ETS, New Mexico MPS 32249
1999 10 07.38112 01 20 36.34 +14 55 56.1 19.6   704 – Lincoln Laboratory ETS, New Mexico MPS 32249
1999 10 07.39182 01 20 35.88 +14 55 52.6 19.4   704 – Lincoln Laboratory ETS, New Mexico MPS 32249
1999 10 07.40257 01 20 35.27 +14 55 49.0 19.5   704 – Lincoln Laboratory ETS, New Mexico MPS 32249
1999 10 13.340580 01 15 43.845 +14 21 49.66 19.01 V 645 – Apache Point-Sloan Digital Sky Survey MPS 79444
1999 10 13.344052 01 15 43.665 +14 21 48.40 19.83   645 – Apache Point-Sloan Digital Sky Survey MPS 79444
1999 10 20.17926 01 10 05.27 +13 38 17.2 18.9   704 – Lincoln Laboratory ETS, New Mexico MPS 32249
1999 10 20.19484 01 10 04.53 +13 38 10.6 19.8   704 – Lincoln Laboratory ETS, New Mexico MPS 32249
1999 10 20.21047 01 10 03.69 +13 38 03.9 19.5   704 – Lincoln Laboratory ETS, New Mexico MPS 32249
1999 10 20.22602 01 10 02.93 +13 37 59.0 19.4   704 – Lincoln Laboratory ETS, New Mexico MPS 32249
1999 10 20.24159 01 10 02.16 +13 37 52.9 19.8   704 – Lincoln Laboratory ETS, New Mexico MPS 32249
1999 11 04.22342 00 59 16.42 +11 58 50.4 18.8 R 703 – Catalina Sky Survey MPS 15593
1999 11 04.24019 00 59 15.69 +11 58 43.6 19.4 R 703 – Catalina Sky Survey MPS 15593
1999 11 04.25690 00 59 15.02 +11 58 38.1 19.5 R 703 – Catalina Sky Survey MPS 15593
1999 11 04.27338 00 59 14.53 +11 58 31.5 19.0 R 703 – Catalina Sky Survey MPS 15593
1999 11 05.15687 00 58 44.13 +11 52 58.4 18.9   704 – Lincoln Laboratory ETS, New Mexico MPS 15593
1999 11 05.17290 00 58 43.52 +11 52 53.0 19.2   704 – Lincoln Laboratory ETS, New Mexico MPS 15593
1999 11 05.18909 00 58 42.99 +11 52 47.2 18.8   704 – Lincoln Laboratory ETS, New Mexico MPS 15593
1999 11 05.20517 00 58 42.38 +11 52 41.0 19.7   704 – Lincoln Laboratory ETS, New Mexico MPS 15593
2001 02 22.390300 10 42 39.874 +01 02 55.04 19.91 V 645 – Apache Point-Sloan Digital Sky Survey MPS 103777
2001 02 22.393772 10 42 39.690 +01 02 56.08 20.74   645 – Apache Point-Sloan Digital Sky Survey MPS 103777
2002 05 18.34800 15 56 50.65 -22 05 15.2 19.5 R 644 – Palomar Mountain/NEAT MPS 251675
2002 05 18.41260 15 56 47.08 -22 05 01.1 19.1 R 644 – Palomar Mountain/NEAT MPS 251675
2004 11 24.629905 07 10 43.15 +20 50 01.0 19.1 R F65 – Haleakala-Faulkes Telescope North MPS 120298
2004 11 24.632104 07 10 43.10 +20 50 00.7 19.1 R F65 – Haleakala-Faulkes Telescope North MPS 120298
2004 11 24.634133 07 10 43.07 +20 50 00.5 19.3 R F65 – Haleakala-Faulkes Telescope North MPS 120298
2004 12 10.37475 07 02 44.88 +20 23 24.5 19.4 V 691 – Steward Observatory, Kitt Peak-Spacewatch MPS 121067
2004 12 10.40823 07 02 43.33 +20 23 21.8 19.4 V 691 – Steward Observatory, Kitt Peak-Spacewatch MPS 121067
2004 12 10.43470 07 02 42.10 +20 23 19.4 19.4 V 691 – Steward Observatory, Kitt Peak-Spacewatch MPS 121067
2004 12 10.98493 07 02 17.70 +20 22 32.8 19.1 R 113 – Volkssternwarte Drebach, Schoenbrunn MPS 121524
2004 12 10.98812 07 02 17.58 +20 22 32.8 19.4 R 113 – Volkssternwarte Drebach, Schoenbrunn MPS 121524
2004 12 10.99132 07 02 17.46 +20 22 32.4 19.8 R 113 – Volkssternwarte Drebach, Schoenbrunn MPS 121524
2004 12 16.34544 06 57 55.89 +20 15 50.1 19.1   704 – Lincoln Laboratory ETS, New Mexico MPS 121524
2004 12 16.35849 06 57 55.18 +20 15 48.9 19.1   704 – Lincoln Laboratory ETS, New Mexico MPS 121524
2004 12 16.38454 06 57 53.75 +20 15 46.7 18.9   704 – Lincoln Laboratory ETS, New Mexico MPS 121524
2004 12 17.30986 06 57 05.11 +20 14 42.5 19.0   704 – Lincoln Laboratory ETS, New Mexico MPS 122569
2004 12 17.32301 06 57 04.40 +20 14 40.4 19.9   704 – Lincoln Laboratory ETS, New Mexico MPS 122569
2004 12 17.36333 06 57 02.10 +20 14 38.3 19.0   704 – Lincoln Laboratory ETS, New Mexico MPS 122569
2004 12 19.32563 06 55 15.57 +20 12 26.7 19.6 V 691 – Steward Observatory, Kitt Peak-Spacewatch MPS 122569
2004 12 19.35171 06 55 14.10 +20 12 25.2 19.6 V 691 – Steward Observatory, Kitt Peak-Spacewatch MPS 122569
2004 12 19.37793 06 55 12.56 +20 12 23.1 19.8 V 691 – Steward Observatory, Kitt Peak-Spacewatch MPS 122569
2005 01 11.80279 06 32 22.93 +19 52 17.9 19.2 V 151 – Eschenberg Observatory, Winterthur MPS 123935
2005 01 11.81269 06 32 22.37 +19 52 18.2 19.0 V 151 – Eschenberg Observatory, Winterthur MPS 123935
2005 01 11.81662 06 32 22.08 +19 52 18.0 19.1 V 151 – Eschenberg Observatory, Winterthur MPS 123935
2005 01 15.29230 06 29 21.49 +19 50 10.3 19.4   704 – Lincoln Laboratory ETS, New Mexico MPS 124498
2005 01 15.30545 06 29 20.78 +19 50 09.6 19.3   704 – Lincoln Laboratory ETS, New Mexico MPS 124498
2005 01 15.31893 06 29 20.11 +19 50 09.0 19.4   704 – Lincoln Laboratory ETS, New Mexico MPS 124498
2005 01 15.33272 06 29 19.38 +19 50 08.1 18.8   704 – Lincoln Laboratory ETS, New Mexico MPS 124498
2005 01 16.81475 06 28 07.48 +19 49 16.5 18.9 R 113 – Volkssternwarte Drebach, Schoenbrunn MPS 124498
2005 01 16.81795 06 28 07.29 +19 49 16.1 19.0 R 113 – Volkssternwarte Drebach, Schoenbrunn MPS 124498
2005 01 16.82115 06 28 07.16 +19 49 15.9 18.8 R 113 – Volkssternwarte Drebach, Schoenbrunn MPS 124498
2008 09 08.53579 01 41 20.14 +16 39 35.6 19.2 R F65 – Haleakala-Faulkes Telescope North MPS 256485
2008 09 08.53777 01 41 20.11 +16 39 35.6 19.3 R F65 – Haleakala-Faulkes Telescope North MPS 256485
2008 09 08.53956 01 41 20.09 +16 39 35.5 19.3 R F65 – Haleakala-Faulkes Telescope North MPS 256485
2008 09 29.60681 01 31 48.70 +15 58 12.6 19.6 R E10 – Siding Spring-Faulkes Telescope South MPS 257705
2008 10 02.28303 01 29 54.53 +15 46 48.2 19.6   704 – Lincoln Laboratory ETS, New Mexico MPS 257705
2008 10 02.29535 01 29 54.03 +15 46 45.7 20.4   704 – Lincoln Laboratory ETS, New Mexico MPS 257705
2008 10 02.30762 01 29 53.56 +15 46 42.2 20.1   704 – Lincoln Laboratory ETS, New Mexico MPS 257705
2008 10 02.33226 01 29 52.33 +15 46 35.6 19.6   704 – Lincoln Laboratory ETS, New Mexico MPS 257705
2008 10 06.35769 01 26 48.62 +15 27 18.6 19.0 V 703 – Catalina Sky Survey MPS 259055
2008 10 06.36425 01 26 48.30 +15 27 15.9 18.8 V 703 – Catalina Sky Survey MPS 259055
2008 10 06.37079 01 26 47.97 +15 27 13.8 19.0 V 703 – Catalina Sky Survey MPS 259055
2008 10 06.37741 01 26 47.65 +15 27 11.8 18.7 V 703 – Catalina Sky Survey MPS 259055
2008 10 07.35732 01 26 01.21 +15 22 08.5 18.8 V 703 – Catalina Sky Survey MPS 259055
2008 10 07.36309 01 26 00.99 +15 22 05.7 18.7 V 703 – Catalina Sky Survey MPS 259055
2008 10 07.36894 01 26 00.67 +15 22 04.1 18.8 V 703 – Catalina Sky Survey MPS 259055
2008 10 07.37469 01 26 00.34 +15 22 02.1 18.9 V 703 – Catalina Sky Survey MPS 259055
2008 10 10.39263 01 23 34.08 +15 05 30.7   291 – LPL/Spacewatch II MPS 259055
2008 10 10.39998 01 23 33.69 +15 05 28.3   291 – LPL/Spacewatch II MPS 259055
2008 10 10.40796 01 23 33.28 +15 05 25.4   291 – LPL/Spacewatch II MPS 259055
2008 10 17.75115 01 17 28.46 +14 20 48.2 19.4 V 151 – Eschenberg Observatory, Winterthur MPS 260469
2008 10 17.75410 01 17 28.35 +14 20 46.5 19.5 V 151 – Eschenberg Observatory, Winterthur MPS 260469
2008 10 19.13076 01 16 20.07 +14 11 52.7   291 – LPL/Spacewatch II MPS 260469
2008 10 19.15311 01 16 18.93 +14 11 44.2   291 – LPL/Spacewatch II MPS 260469
2008 10 19.17335 01 16 17.89 +14 11 36.4   291 – LPL/Spacewatch II MPS 260469
2008 10 20.81339 01 14 57.18 +14 00 49.8 19.2 V 151 – Eschenberg Observatory, Winterthur MPS 260469
